Civil Air Patrol

Glenn L. Martin Composite Squadron

Welcome to the Glenn L. Martin Composite Squadron Civil Air Patrol

 

We are the official auxiliary of the United States Air Force.

Our 3 main missions are cadet programs, aerospace education and emergency services.

Click each link to learn more about each mission.

 

Here is a short video from National Headquarters about CAP

 

 


 

 
Current METAR for KMTN (Martin State Airport)

KMTN 140054Z 05003KT 10SM OVC070 06/04 A3041

 

Current TAF for KBWI (Baltimore Washington International)

TAF AMD KBWI 132039Z 1321/1424 11008KT P6SM BKN150 FM140200 07004KT P6SM BKN050 FM141800 VRB03KT P6SM -RA OVC070